Time,TemperatureF,DewpointF,PressureIn,WindDirection,WindDirectionDegrees,WindSpeedMPH,WindSpeedGustMPH,Humidity,HourlyPrecipIn,Conditions,Clouds,dailyrainin,SoftwareType,DateUTC
2013-05-29 00:03:00,73.0,66.0,29.85,SSW,209,2.0,8.0,80,0.00,,,0.05,,2013-05-29 04:03:00,
2013-05-29 00:13:00,73.0,66.0,29.85,SSW,209,2.0,8.0,80,0.00,,,0.05,,2013-05-29 04:13:00,
2013-05-29 00:23:00,73.0,66.0,29.85,South,182,3.0,9.0,79,0.00,,,0.05,,2013-05-29 04:23:00,
2013-05-29 00:33:00,73.0,66.0,29.85,SSW,213,3.0,8.0,79,0.00,,,0.05,,2013-05-29 04:33:00,
2013-05-29 00:42:00,73.0,66.0,29.85,SSW,213,3.0,8.0,79,0.00,,,0.05,,2013-05-29 04:42:00,
2013-05-29 00:52:00,73.0,66.0,29.86,South,190,3.0,9.0,79,0.00,,,0.05,,2013-05-29 04:52:00,
2013-05-29 01:03:00,72.0,65.0,29.85,SSW,198,3.0,7.0,80,0.00,,,0.05,,2013-05-29 05:03:00,
2013-05-29 01:12:00,72.0,65.0,29.85,SSW,198,3.0,7.0,80,0.00,,,0.05,,2013-05-29 05:12:00,
2013-05-29 01:22:00,72.0,65.0,29.86,SW,232,3.0,7.0,79,0.01,,,0.06,,2013-05-29 05:22:00,
2013-05-29 01:33:00,73.0,66.0,29.86,SW,234,3.0,11.0,78,0.01,,,0.06,,2013-05-29 05:33:00,
2013-05-29 01:42:00,73.0,66.0,29.86,SW,234,3.0,11.0,78,0.01,,,0.06,,2013-05-29 05:42:00,
2013-05-29 01:52:00,73.0,66.0,29.85,SSW,211,3.0,9.0,78,0.01,,,0.06,,2013-05-29 05:52:00,
2013-05-29 02:02:00,73.0,65.0,29.85,SW,234,4.0,10.0,77,0.00,,,0.05,,2013-05-29 06:02:00,
2013-05-29 02:12:00,73.0,65.0,29.85,SW,234,4.0,10.0,77,0.00,,,0.05,,2013-05-29 06:12:00,
2013-05-29 02:22:00,72.0,65.0,29.85,SSW,204,3.0,8.0,78,0.00,,,0.05,,2013-05-29 06:22:00,
2013-05-29 02:32:00,72.0,65.0,29.85,South,188,3.0,10.0,78,0.00,,,0.05,,2013-05-29 06:32:00,
2013-05-29 02:42:00,72.0,65.0,29.85,South,188,3.0,10.0,78,0.00,,,0.05,,2013-05-29 06:42:00,
2013-05-29 02:52:00,72.0,65.0,29.85,WSW,240,2.0,9.0,78,0.01,,,0.06,,2013-05-29 06:52:00,
2013-05-29 03:01:00,72.0,64.0,29.85,SW,236,3.0,9.0,77,0.01,,,0.06,,2013-05-29 07:01:00,
2013-05-29 03:11:00,72.0,64.0,29.85,SW,236,3.0,9.0,77,0.01,,,0.06,,2013-05-29 07:11:00,
2013-05-29 03:22:00,72.0,64.0,29.85,South,175,4.0,11.0,77,0.01,,,0.06,,2013-05-29 07:22:00,
2013-05-29 03:34:00,72.0,64.0,29.85,WSW,247,5.0,11.0,76,0.01,,,0.06,,2013-05-29 07:34:00,
2013-05-29 03:42:00,72.0,64.0,29.85,WSW,247,5.0,11.0,76,0.01,,,0.06,,2013-05-29 07:42:00,
2013-05-29 03:52:00,73.0,65.0,29.85,SW,222,5.0,13.0,75,0.00,,,0.06,,2013-05-29 07:52:00,
2013-05-29 04:02:00,72.0,63.0,29.85,WSW,248,3.0,16.0,74,0.00,,,0.06,,2013-05-29 08:02:00,
2013-05-29 04:11:00,72.0,63.0,29.85,WSW,248,3.0,16.0,74,0.00,,,0.06,,2013-05-29 08:11:00,
2013-05-29 04:22:00,72.0,64.0,29.85,SW,223,4.0,10.0,75,0.00,,,0.06,,2013-05-29 08:22:00,
2013-05-29 04:32:00,72.0,63.0,29.86,SSW,210,4.0,10.0,74,0.00,,,0.06,,2013-05-29 08:32:00,
2013-05-29 04:42:00,72.0,63.0,29.86,SSW,210,4.0,10.0,74,0.00,,,0.06,,2013-05-29 08:42:00,
2013-05-29 04:52:00,72.0,63.0,29.86,SW,224,4.0,10.0,74,0.00,,,0.06,,2013-05-29 08:52:00,
2013-05-29 05:01:00,72.0,63.0,29.86,WSW,246,4.0,10.0,74,0.01,,,0.07,,2013-05-29 09:01:00,
2013-05-29 05:11:00,72.0,63.0,29.86,WSW,246,4.0,10.0,74,0.01,,,0.07,,2013-05-29 09:11:00,
2013-05-29 05:21:00,71.0,62.0,29.87,South,186,4.0,18.0,73,0.01,,,0.07,,2013-05-29 09:21:00,
2013-05-29 05:33:00,71.0,62.0,29.87,SW,227,3.0,8.0,73,0.01,,,0.07,,2013-05-29 09:33:00,
2013-05-29 05:42:00,71.0,62.0,29.87,SW,227,3.0,8.0,73,0.01,,,0.07,,2013-05-29 09:42:00,
2013-05-29 05:52:00,71.0,62.0,29.87,SSW,209,4.0,13.0,73,0.00,,,0.07,,2013-05-29 09:52:00,
2013-05-29 06:03:00,71.0,62.0,29.87,WSW,251,3.0,10.0,74,0.00,,,0.06,,2013-05-29 10:03:00,
2013-05-29 06:12:00,71.0,62.0,29.87,WSW,251,3.0,10.0,74,0.00,,,0.06,,2013-05-29 10:12:00,
2013-05-29 06:22:00,71.0,62.0,29.88,West,260,3.0,9.0,74,0.01,,,0.07,,2013-05-29 10:22:00,
2013-05-29 06:33:00,71.0,62.0,29.88,West,275,4.0,9.0,73,0.01,,,0.07,,2013-05-29 10:33:00,
2013-05-29 06:42:00,71.0,62.0,29.88,West,275,4.0,9.0,73,0.01,,,0.07,,2013-05-29 10:42:00,
2013-05-29 06:52:00,71.0,62.0,29.88,WSW,255,3.0,12.0,72,0.01,,,0.07,,2013-05-29 10:52:00,
2013-05-29 07:02:00,71.0,62.0,29.89,SW,229,4.0,10.0,72,0.02,,,0.08,,2013-05-29 11:02:00,
2013-05-29 07:12:00,71.0,62.0,29.89,SW,229,4.0,10.0,72,0.02,,,0.08,,2013-05-29 11:12:00,
2013-05-29 07:22:00,71.0,62.0,29.89,WSW,258,2.0,11.0,72,0.01,,,0.08,,2013-05-29 11:22:00,
2013-05-29 07:32:00,71.0,62.0,29.89,West,275,4.0,9.0,73,0.01,,,0.08,,2013-05-29 11:32:00,
2013-05-29 07:42:00,71.0,62.0,29.89,West,275,4.0,9.0,73,0.01,,,0.08,,2013-05-29 11:42:00,
2013-05-29 07:52:00,71.0,62.0,29.89,WSW,250,4.0,9.0,73,0.01,,,0.08,,2013-05-29 11:52:00,
2013-05-29 08:01:00,71.0,62.0,29.89,SW,218,4.0,9.0,72,0.00,,,0.08,,2013-05-29 12:01:00,
2013-05-29 08:11:00,71.0,62.0,29.89,SW,218,4.0,9.0,72,0.00,,,0.08,,2013-05-29 12:11:00,
2013-05-29 08:22:00,71.0,62.0,29.90,WSW,253,4.0,10.0,72,0.01,,,0.09,,2013-05-29 12:22:00,
2013-05-29 08:32:00,72.0,63.0,29.91,SW,220,3.0,7.0,74,0.01,,,0.09,,2013-05-29 12:32:00,
2013-05-29 08:42:00,72.0,63.0,29.91,SW,220,3.0,7.0,74,0.01,,,0.09,,2013-05-29 12:42:00,
2013-05-29 08:52:00,73.0,63.0,29.91,SW,222,6.0,15.0,71,0.01,,,0.09,,2013-05-29 12:52:00,
2013-05-29 09:02:00,73.0,63.0,29.91,SW,229,4.0,13.0,71,0.01,,,0.09,,2013-05-29 13:02:00,
2013-05-29 09:11:00,73.0,63.0,29.91,SW,229,4.0,13.0,71,0.01,,,0.09,,2013-05-29 13:11:00,
2013-05-29 09:22:00,74.0,64.0,29.91,SW,231,5.0,11.0,70,0.00,,,0.09,,2013-05-29 13:22:00,
2013-05-29 09:32:00,75.0,65.0,29.92,WSW,239,6.0,13.0,70,0.00,,,0.09,,2013-05-29 13:32:00,
2013-05-29 09:42:00,75.0,65.0,29.92,WSW,239,6.0,13.0,70,0.00,,,0.09,,2013-05-29 13:42:00,
2013-05-29 09:53:00,75.0,65.0,29.92,NW,308,4.0,13.0,70,0.00,,,0.09,,2013-05-29 13:53:00,
2013-05-29 10:02:00,75.0,65.0,29.92,WSW,242,4.0,11.0,71,0.00,,,0.09,,2013-05-29 14:02:00,
2013-05-29 10:11:00,75.0,65.0,29.92,WSW,242,4.0,11.0,71,0.00,,,0.09,,2013-05-29 14:11:00,
2013-05-29 10:21:00,75.0,65.0,29.92,SW,219,5.0,11.0,70,0.00,,,0.09,,2013-05-29 14:21:00,
2013-05-29 10:32:00,76.0,65.0,29.92,WSW,254,4.0,13.0,70,0.01,,,0.10,,2013-05-29 14:32:00,
2013-05-29 10:42:00,76.0,65.0,29.92,WSW,254,4.0,13.0,70,0.01,,,0.10,,2013-05-29 14:42:00,
2013-05-29 10:52:00,77.0,66.0,29.92,WNW,293,4.0,14.0,68,0.01,,,0.10,,2013-05-29 14:52:00,
2013-05-29 11:01:00,77.0,66.0,29.92,West,278,2.0,12.0,70,0.01,,,0.09,,2013-05-29 15:01:00,
2013-05-29 11:11:00,77.0,66.0,29.92,West,278,2.0,12.0,70,0.01,,,0.09,,2013-05-29 15:11:00,
2013-05-29 11:21:00,78.0,67.0,29.93,West,277,3.0,10.0,68,0.01,,,0.09,,2013-05-29 15:21:00,
2013-05-29 11:33:00,79.0,67.0,29.93,West,271,3.0,12.0,66,0.01,,,0.10,,2013-05-29 15:33:00,
2013-05-29 11:42:00,79.0,67.0,29.93,West,271,3.0,12.0,66,0.01,,,0.10,,2013-05-29 15:42:00,
2013-05-29 11:53:00,79.0,68.0,29.93,WSW,255,2.0,9.0,68,0.01,,,0.10,,2013-05-29 15:53:00,
2013-05-29 12:03:00,79.0,67.0,29.94,SW,233,3.0,11.0,67,0.01,,,0.10,,2013-05-29 16:03:00,
2013-05-29 12:13:00,79.0,67.0,29.94,SW,233,3.0,11.0,67,0.01,,,0.10,,2013-05-29 16:13:00,
2013-05-29 12:22:00,79.0,67.0,29.94,SW,229,1.0,11.0,67,0.01,,,0.10,,2013-05-29 16:22:00,
2013-05-29 12:33:00,80.0,68.0,29.95,WNW,293,3.0,13.0,66,0.01,,,0.11,,2013-05-29 16:33:00,
2013-05-29 12:42:00,80.0,68.0,29.95,WNW,293,3.0,13.0,66,0.01,,,0.11,,2013-05-29 16:42:00,
2013-05-29 12:52:00,81.0,68.0,29.95,West,276,3.0,13.0,65,0.01,,,0.11,,2013-05-29 16:52:00,
2013-05-29 13:02:00,82.0,69.0,29.95,West,261,1.0,9.0,65,0.02,,,0.12,,2013-05-29 17:02:00,
2013-05-29 13:12:00,82.0,69.0,29.95,West,261,1.0,9.0,65,0.02,,,0.12,,2013-05-29 17:12:00,
2013-05-29 13:22:00,82.0,69.0,29.96,WSW,242,4.0,16.0,64,0.02,,,0.12,,2013-05-29 17:22:00,
2013-05-29 13:32:00,82.0,68.0,29.96,WSW,246,2.0,10.0,62,0.01,,,0.12,,2013-05-29 17:32:00,
2013-05-29 13:42:00,82.0,68.0,29.96,WSW,246,2.0,10.0,62,0.01,,,0.12,,2013-05-29 17:42:00,
2013-05-29 13:52:00,82.0,67.0,29.95,WNW,282,4.0,15.0,61,0.01,,,0.12,,2013-05-29 17:52:00,
2013-05-29 14:01:00,84.0,69.0,29.95,WSW,239,3.0,10.0,60,0.01,,,0.13,,2013-05-29 18:01:00,
2013-05-29 14:13:00,84.0,69.0,29.95,WSW,239,3.0,10.0,60,0.01,,,0.13,,2013-05-29 18:13:00,
2013-05-29 14:22:00,84.0,68.0,29.95,WSW,251,3.0,11.0,59,0.01,,,0.13,,2013-05-29 18:22:00,
2013-05-29 14:32:00,83.0,67.0,29.95,WNW,298,2.0,10.0,59,0.01,,,0.13,,2013-05-29 18:32:00,
2013-05-29 14:42:00,83.0,67.0,29.95,WNW,298,2.0,10.0,59,0.01,,,0.13,,2013-05-29 18:42:00,
2013-05-29 14:52:00,84.0,67.0,29.94,WSW,242,4.0,11.0,57,0.01,,,0.13,,2013-05-29 18:52:00,
2013-05-29 15:02:00,85.0,68.0,29.94,WNW,302,4.0,10.0,56,0.01,,,0.14,,2013-05-29 19:02:00,
2013-05-29 15:11:00,85.0,68.0,29.94,WNW,302,4.0,10.0,56,0.01,,,0.14,,2013-05-29 19:11:00,
2013-05-29 15:22:00,86.0,68.0,29.95,SW,226,4.0,11.0,55,0.01,,,0.14,,2013-05-29 19:22:00,
2013-05-29 15:32:00,84.0,67.0,29.94,WSW,258,2.0,9.0,56,0.02,,,0.15,,2013-05-29 19:32:00,
2013-05-29 15:44:00,84.0,67.0,29.94,WSW,258,2.0,9.0,56,0.02,,,0.15,,2013-05-29 19:44:00,
2013-05-29 15:53:00,84.0,67.0,29.94,SW,217,4.0,8.0,56,0.03,,,0.16,,2013-05-29 19:53:00,
2013-05-29 16:03:00,85.0,67.0,29.94,WSW,252,3.0,9.0,55,0.02,,,0.16,,2013-05-29 20:03:00,
2013-05-29 16:11:00,85.0,67.0,29.94,WSW,252,3.0,9.0,55,0.02,,,0.16,,2013-05-29 20:11:00,
2013-05-29 16:23:00,85.0,67.0,29.94,WSW,250,2.0,11.0,55,0.02,,,0.16,,2013-05-29 20:23:00,
2013-05-29 16:33:00,86.0,66.0,29.94,SSW,192,3.0,13.0,51,0.02,,,0.17,,2013-05-29 20:33:00,
2013-05-29 16:42:00,86.0,66.0,29.94,SSW,192,3.0,13.0,51,0.02,,,0.17,,2013-05-29 20:42:00,
2013-05-29 16:53:00,86.0,65.0,29.93,WSW,237,6.0,10.0,49,0.01,,,0.17,,2013-05-29 20:53:00,
2013-05-29 17:02:00,86.0,65.0,29.93,WSW,237,4.0,11.0,50,0.02,,,0.18,,2013-05-29 21:02:00,
2013-05-29 17:12:00,86.0,65.0,29.93,WSW,237,4.0,11.0,50,0.02,,,0.18,,2013-05-29 21:12:00,
2013-05-29 17:22:00,86.0,63.0,29.93,West,265,4.0,10.0,47,0.01,,,0.18,,2013-05-29 21:22:00,
2013-05-29 17:33:00,86.0,64.0,29.93,SSW,194,3.0,10.0,48,0.01,,,0.18,,2013-05-29 21:33:00,
2013-05-29 17:43:00,86.0,64.0,29.93,SSW,194,3.0,10.0,48,0.01,,,0.18,,2013-05-29 21:43:00,
2013-05-29 17:53:00,85.0,63.0,29.93,SSW,207,3.0,11.0,48,0.01,,,0.18,,2013-05-29 21:53:00,
2013-05-29 18:03:00,84.0,63.0,29.93,South,170,3.0,14.0,49,0.00,,,0.18,,2013-05-29 22:03:00,
2013-05-29 18:12:00,84.0,63.0,29.93,South,170,3.0,14.0,49,0.00,,,0.18,,2013-05-29 22:12:00,
2013-05-29 18:23:00,84.0,64.0,29.93,SW,236,2.0,9.0,52,0.00,,,0.18,,2013-05-29 22:23:00,
2013-05-29 18:33:00,84.0,63.0,29.93,SSW,211,3.0,9.0,50,0.00,,,0.18,,2013-05-29 22:33:00,
2013-05-29 18:42:00,84.0,63.0,29.93,SSW,211,3.0,9.0,50,0.00,,,0.18,,2013-05-29 22:42:00,
2013-05-29 18:53:00,84.0,64.0,29.93,WSW,241,3.0,8.0,51,0.00,,,0.18,,2013-05-29 22:53:00,
2013-05-29 19:02:00,84.0,64.0,29.92,WSW,244,3.0,9.0,51,0.00,,,0.18,,2013-05-29 23:02:00,
2013-05-29 19:12:00,84.0,64.0,29.92,WSW,244,3.0,9.0,51,0.00,,,0.18,,2013-05-29 23:12:00,
2013-05-29 19:22:00,84.0,65.0,29.92,SW,215,1.0,8.0,53,0.00,,,0.18,,2013-05-29 23:22:00,
2013-05-29 19:33:00,83.0,64.0,29.92,SSW,200,2.0,7.0,53,0.00,,,0.18,,2013-05-29 23:33:00,
2013-05-29 19:42:00,83.0,64.0,29.92,SSW,200,2.0,7.0,53,0.00,,,0.18,,2013-05-29 23:42:00,
2013-05-29 19:53:00,83.0,65.0,29.92,SW,229,2.0,5.0,54,0.00,,,0.18,,2013-05-29 23:53:00,
2013-05-29 20:02:00,83.0,65.0,29.92,SW,235,2.0,8.0,54,0.00,,,0.18,,2013-05-30 00:02:00,
2013-05-29 20:12:00,83.0,65.0,29.92,SW,235,2.0,8.0,54,0.00,,,0.18,,2013-05-30 00:12:00,
2013-05-29 20:22:00,83.0,65.0,29.91,SW,218,1.0,8.0,55,0.00,,,0.18,,2013-05-30 00:22:00,
2013-05-29 20:32:00,82.0,64.0,29.91,SW,221,1.0,5.0,55,0.00,,,0.18,,2013-05-30 00:32:00,
2013-05-29 20:42:00,82.0,64.0,29.91,SW,221,1.0,5.0,55,0.00,,,0.18,,2013-05-30 00:42:00,
2013-05-29 20:52:00,81.0,65.0,29.91,SSW,209,0.0,3.0,58,0.00,,,0.18,,2013-05-30 00:52:00,
2013-05-29 21:01:00,80.0,65.0,29.91,South,191,1.0,3.0,60,0.01,,,0.18,,2013-05-30 01:01:00,
2013-05-29 21:11:00,80.0,65.0,29.91,South,191,1.0,3.0,60,0.01,,,0.18,,2013-05-30 01:11:00,
2013-05-29 21:22:00,79.0,65.0,29.92,SSW,204,0.0,3.0,62,0.01,,,0.18,,2013-05-30 01:22:00,
2013-05-29 21:32:00,78.0,65.0,29.92,SSW,210,0.0,1.0,64,0.01,,,0.18,,2013-05-30 01:32:00,
2013-05-29 21:42:00,78.0,65.0,29.92,SSW,210,0.0,1.0,64,0.01,,,0.18,,2013-05-30 01:42:00,
2013-05-29 21:52:00,77.0,64.0,29.92,SSW,210,0.0,2.0,65,0.01,,,0.18,,2013-05-30 01:52:00,
2013-05-29 22:01:00,77.0,64.0,29.92,SSW,210,0.0,2.0,65,0.01,,,0.18,,2013-05-30 02:01:00,
2013-05-29 22:11:00,77.0,64.0,29.92,SSW,210,0.0,2.0,65,0.01,,,0.18,,2013-05-30 02:11:00,
2013-05-29 22:22:00,76.0,64.0,29.93,SSW,208,0.0,2.0,67,0.00,,,0.18,,2013-05-30 02:22:00,
2013-05-29 22:32:00,76.0,64.0,29.93,SW,228,0.0,2.0,67,0.00,,,0.18,,2013-05-30 02:32:00,
2013-05-29 22:42:00,76.0,64.0,29.93,SW,228,0.0,2.0,67,0.00,,,0.18,,2013-05-30 02:42:00,
2013-05-29 22:52:00,76.0,64.0,29.93,SW,228,0.0,2.0,67,0.00,,,0.18,,2013-05-30 02:52:00,
2013-05-29 23:02:00,75.0,64.0,29.95,SSW,205,0.0,2.0,69,0.00,,,0.17,,2013-05-30 03:02:00,
2013-05-29 23:11:00,75.0,64.0,29.95,SSW,205,0.0,3.0,69,0.00,,,0.17,,2013-05-30 03:11:00,
2013-05-29 23:21:00,75.0,64.0,29.95,SSW,205,0.0,3.0,69,0.00,,,0.17,,2013-05-30 03:21:00,
2013-05-29 23:33:00,74.0,63.0,29.95,South,173,0.0,3.0,68,0.00,,,0.17,,2013-05-30 03:33:00,
2013-05-29 23:43:00,74.0,63.0,29.95,South,173,0.0,3.0,68,0.00,,,0.17,,2013-05-30 03:43:00,
2013-05-29 23:53:00,74.0,63.0,29.94,SSE,147,0.0,3.0,68,0.00,,,0.17,,2013-05-30 03:53:00,